Terminal Aerodrome Forecast
Issued by NWS

Home | Current Version | Previous Version | Text Only | Print | Product List | Glossary On
Versions: 1 2 3 4 5 6 7 8 9 10 11 12 13 14 15 16 17 18 19 20 21 22 23 24 25 26 27 28 29 30 31 32 33 34 35 36 37 38 39 40 41
000
FTUS43 KDMX 242339
TAFOTM
TAF
KOTM 242339Z 2500/2524 30011KT P6SM BKN017 OVC024
     FM250400 25010KT 6SM BR OVC007
     FM251100 19009KT P6SM FEW012 BKN035
     FM251400 18012KT P6SM FEW015 BKN250=

USA.gov is the U.S. government's official web portal to all federal, state and local government web resources and services.